| time (UTC) | temp F | wind direction | speed knots | gust knots | rain 1hr in | rain 24hr in | rain mn in | humidity % | barometer mb |
| 20260507141547 | 61 | 0 | 0.0 | 3.5 | 0.04 | 0.05 | 0.05 | 83 | 1010.7 |
| 20260507140032 | 60 | 180 | 3.5 | 8.7 | 0.03 | 0.03 | 0.03 | 84 | 1011.0 |
| 20260507134528 | 61 | 140 | 7.0 | 12.2 | 0.03 | 0.03 | 0.03 | 84 | 1011.1 |
| 20260507133028 | 62 | 150 | 4.3 | 8.7 | 0.01 | 0.01 | 0.01 | 83 | 1011.4 |
| 20260507131527 | 62 | 150 | 3.5 | 7.8 | 0.00 | 0.00 | 0.00 | 80 | 1011.4 |
| 20260507130040 | 66 | 150 | 4.3 | 9.6 | 0.00 | 0.00 | 0.00 | 73 | 1011.5 |
| 20260507124530 | 67 | 126 | 6.1 | 10.4 | 0.00 | 0.00 | 0.00 | 70 | 1011.4 |
| 20260507123030 | 67 | 94 | 6.1 | 13.0 | 0.00 | 0.00 | 0.00 | 69 | 1011.5 |
| 20260507121530 | 67 | 145 | 5.2 | 11.3 | 0.00 | 0.00 | 0.00 | 69 | 1011.6 |
| 20260507120030 | 67 | 101 | 5.2 | 12.2 | 0.00 | 0.00 | 0.00 | 69 | 1011.8 |
| 20260507114531 | 67 | 64 | 5.2 | 11.3 | 0.00 | 0.00 | 0.00 | 70 | 1011.8 |
| 20260507113030 | 66 | 138 | 7.0 | 12.2 | 0.00 | 0.00 | 0.00 | 71 | 1011.7 |
| 20260507111530 | 66 | 127 | 7.8 | 13.9 | 0.00 | 0.00 | 0.00 | 72 | 1011.9 |
| 20260507110030 | 66 | 105 | 6.1 | 13.9 | 0.00 | 0.00 | 0.00 | 72 | 1012.0 |
| 20260507104527 | 67 | 64 | 8.7 | 14.8 | 0.00 | 0.00 | 0.00 | 70 | 1012.1 |
| 20260507103032 | 66 | 93 | 10.4 | 14.8 | 0.00 | 0.00 | 0.00 | 72 | 1012.1 |
| 20260507101528 | 66 | 81 | 9.6 | 15.6 | 0.00 | 0.00 | 0.00 | 72 | 1012.1 |
| 20260507100036 | 66 | 117 | 8.7 | 16.5 | 0.00 | 0.00 | 0.00 | 72 | 1012.0 |
| 20260507094528 | 66 | 87 | 9.6 | 15.6 | 0.00 | 0.00 | 0.00 | 71 | 1012.1 |
| 20260507093028 | 66 | 100 | 8.7 | 15.6 | 0.00 | 0.00 | 0.00 | 71 | 1012.2 |
| 20260507091535 | 65 | 76 | 8.7 | 16.5 | 0.00 | 0.00 | 0.00 | 73 | 1012.1 |
| 20260507090028 | 65 | 58 | 8.7 | 12.2 | 0.00 | 0.00 | 0.00 | 73 | 1012.1 |
| 20260507084530 | 65 | 92 | 8.7 | 13.0 | 0.00 | 0.00 | 0.00 | 75 | 1012.1 |
| 20260507083028 | 64 | 61 | 7.0 | 12.2 | 0.00 | 0.00 | 0.00 | 76 | 1012.2 |
| 20260507081530 | 64 | 78 | 7.8 | 13.0 | 0.00 | 0.00 | 0.00 | 74 | 1012.2 |
| 20260507080028 | 64 | 78 | 5.2 | 11.3 | 0.00 | 0.00 | 0.00 | 74 | 1012.2 |
| 20260507074528 | 63 | 43 | 4.3 | 8.7 | 0.00 | 0.00 | 0.00 | 76 | 1012.2 |
| 20260507073031 | 63 | 98 | 3.5 | 7.8 | 0.00 | 0.00 | 0.00 | 76 | 1012.2 |
| 20260507071533 | 62 | 35 | 2.6 | 7.0 | 0.00 | 0.00 | 0.00 | 80 | 1012.0 |
| 20260507070033 | 60 | 35 | 0.9 | 5.2 | 0.00 | 0.00 | 0.00 | 84 | 1011.8 |
| 20260507064550 | 59 | 94 | 0.9 | 3.5 | 0.00 | 0.00 | 0.00 | 85 | 1011.7 |
| 20260507063034 | 59 | 86 | 1.7 | 2.6 | 0.00 | 0.00 | 0.00 | 85 | 1011.6 |
| 20260507061530 | 57 | 113 | 0.9 | 1.7 | 0.00 | 0.00 | 0.00 | 85 | 1011.7 |
| 20260507060030 | 57 | 113 | 0.9 | 2.6 | 0.00 | 0.00 | 0.00 | 85 | 1011.6 |
| 20260507054527 | 56 | 113 | 0.9 | 2.6 | 0.00 | 0.00 | 0.00 | 84 | 1011.6 |
| 20260507053030 | 56 | 0 | 0.0 | 2.6 | 0.00 | 0.00 | 0.00 | 84 | 1011.6 |
| 20260507051528 | 56 | 0 | 0.0 | 0.9 | 0.00 | 0.00 | 0.00 | 83 | 1011.6 |
| 20260507050039 | 57 | 113 | 0.9 | 2.6 | 0.00 | 0.00 | 0.00 | 83 | 1011.5 |
| 20260507044529 | 57 | 113 | 0.9 | 1.7 | 0.00 | 0.00 | 0.00 | 83 | 1011.4 |
| 20260507043030 | 57 | 113 | 0.9 | 2.6 | 0.00 | 0.00 | 0.00 | 83 | 1011.4 |
| 20260507041529 | 57 | 113 | 1.7 | 2.6 | 0.00 | 0.00 | 0.00 | 82 | 1011.3 |
| 20260507040030 | 57 | 114 | 0.9 | 2.6 | 0.00 | 0.00 | 0.00 | 82 | 1011.3 |
| 20260507034530 | 58 | 0 | 0.0 | 1.7 | 0.00 | 0.00 | 0.00 | 82 | 1011.3 |
| 20260507033028 | 59 | 63 | 0.9 | 2.6 | 0.00 | 0.00 | 0.00 | 82 | 1011.3 |
| 20260507031533 | 59 | 63 | 1.7 | 3.5 | 0.00 | 0.00 | 0.00 | 82 | 1011.3 |
| 20260507030035 | 59 | 66 | 1.7 | 4.3 | 0.00 | 0.00 | 0.00 | 82 | 1011.2 |
| 20260507024530 | 59 | 70 | 2.6 | 3.5 | 0.00 | 0.00 | 0.00 | 82 | 1011.4 |
| 20260507023030 | 59 | 65 | 2.6 | 5.2 | 0.00 | 0.00 | 0.00 | 82 | 1011.4 |
| 20260507021527 | 60 | 87 | 2.6 | 5.2 | 0.00 | 0.00 | 0.00 | 82 | 1011.4 |
| 20260507020029 | 60 | 87 | 2.6 | 5.2 | 0.00 | 0.00 | 0.00 | 82 | 1011.6 |
| 20260507014529 | 60 | 95 | 3.5 | 5.2 | 0.00 | 0.00 | 0.00 | 82 | 1011.7 |
| 20260507013028 | 60 | 110 | 2.6 | 5.2 | 0.00 | 0.00 | 0.00 | 82 | 1012.0 |
| 20260507011531 | 60 | 101 | 2.6 | 5.2 | 0.00 | 0.00 | 0.00 | 82 | 1011.8 |
| 20260507010043 | 60 | 103 | 2.6 | 5.2 | 0.00 | 0.00 | 0.00 | 83 | 1011.7 |
| 20260507004533 | 60 | 100 | 2.6 | 5.2 | 0.00 | 0.00 | 0.00 | 83 | 1011.8 |
| 20260507003029 | 60 | 82 | 2.6 | 6.1 | 0.00 | 0.00 | 0.00 | 83 | 1011.8 |
| 20260507001531 | 60 | 93 | 2.6 | 5.2 | 0.00 | 0.00 | 0.00 | 84 | 1011.9 |
| 20260507000028 | 60 | 71 | 2.6 | 4.3 | 0.00 | 0.00 | 0.00 | 84 | 1012.1 |
| 20260506234531 | 61 | 95 | 2.6 | 6.1 | 0.00 | 0.00 | 0.00 | 84 | 1012.2 |
| 20260506233030 | 61 | 73 | 2.6 | 5.2 | 0.00 | 0.00 | 0.00 | 84 | 1012.3 |
| 20260506231531 | 61 | 82 | 2.6 | 4.3 | 0.00 | 0.00 | 0.00 | 84 | 1012.4 |
| 20260506230039 | 61 | 74 | 2.6 | 6.1 | 0.00 | 0.00 | 0.00 | 84 | 1012.3 |
| 20260506224536 | 61 | 90 | 1.7 | 4.3 | 0.00 | 0.00 | 0.00 | 84 | 1012.3 |
| 20260506223030 | 61 | 70 | 2.6 | 4.3 | 0.00 | 0.00 | 0.00 | 84 | 1012.3 |
| 20260506221528 | 61 | 62 | 1.7 | 4.3 | 0.00 | 0.00 | 0.00 | 84 | 1012.4 |
| 20260506220035 | 61 | 60 | 0.9 | 2.6 | 0.00 | 0.00 | 0.00 | 83 | 1012.3 |
| 20260506214529 | 61 | 110 | 1.7 | 3.5 | 0.00 | 0.00 | 0.00 | 83 | 1012.5 |
| 20260506213030 | 62 | 110 | 1.7 | 7.0 | 0.00 | 0.00 | 0.00 | 83 | 1012.7 |
| 20260506211533 | 62 | 80 | 2.6 | 4.3 | 0.00 | 0.00 | 0.00 | 83 | 1012.7 |
| 20260506210031 | 62 | 65 | 1.7 | 4.3 | 0.00 | 0.00 | 0.00 | 82 | 1012.7 |
| 20260506204534 | 62 | 64 | 2.6 | 4.3 | 0.00 | 0.00 | 0.00 | 82 | 1012.6 |
| 20260506203031 | 62 | 83 | 2.6 | 6.1 | 0.00 | 0.00 | 0.00 | 81 | 1012.5 |
| 20260506201537 | 62 | 83 | 2.6 | 7.0 | 0.00 | 0.00 | 0.00 | 81 | 1012.3 |
| 20260506200030 | 63 | 91 | 3.5 | 6.1 | 0.00 | 0.00 | 0.00 | 80 | 1012.0 |
| 20260506194528 | 63 | 80 | 4.3 | 10.4 | 0.00 | 0.00 | 0.00 | 80 | 1011.8 |
| 20260506193027 | 63 | 90 | 7.0 | 10.4 | 0.00 | 0.00 | 0.00 | 79 | 1011.8 |
| 20260506191530 | 64 | 80 | 6.1 | 10.4 | 0.00 | 0.00 | 0.00 | 77 | 1011.6 |
| 20260506190030 | 64 | 97 | 7.0 | 12.2 | 0.00 | 0.00 | 0.00 | 77 | 1011.6 |
| 20260506184532 | 64 | 88 | 8.7 | 13.0 | 0.00 | 0.00 | 0.00 | 76 | 1011.3 |
| 20260506183032 | 65 | 84 | 7.0 | 13.0 | 0.00 | 0.00 | 0.00 | 74 | 1011.2 |
| 20260506181531 | 65 | 101 | 8.7 | 13.0 | 0.00 | 0.00 | 0.00 | 73 | 1011.1 |
| 20260506180032 | 65 | 85 | 4.3 | 13.0 | 0.00 | 0.00 | 0.00 | 73 | 1011.2 |
| 20260506174533 | 65 | 76 | 8.7 | 15.6 | 0.00 | 0.00 | 0.00 | 72 | 1011.1 |
| 20260506173030 | 66 | 98 | 8.7 | 15.6 | 0.00 | 0.00 | 0.00 | 72 | 1011.0 |
| 20260506171539 | 66 | 148 | 7.0 | 14.8 | 0.00 | 0.00 | 0.00 | 71 | 1010.9 |
| 20260506170029 | 66 | 121 | 5.2 | 10.4 | 0.00 | 0.00 | 0.00 | 71 | 1011.0 |
| 20260506164531 | 67 | 148 | 8.7 | 15.6 | 0.00 | 0.00 | 0.00 | 69 | 1010.9 |
| 20260506163030 | 67 | 105 | 6.1 | 13.0 | 0.00 | 0.00 | 0.00 | 68 | 1010.7 |
| 20260506161532 | 66 | 96 | 10.4 | 19.1 | 0.00 | 0.00 | 0.00 | 69 | 1010.6 |
| 20260506160030 | 67 | 131 | 8.7 | 18.2 | 0.00 | 0.00 | 0.00 | 67 | 1010.7 |
| 20260506154534 | 68 | 131 | 7.8 | 16.5 | 0.00 | 0.00 | 0.00 | 67 | 1010.4 |
| 20260506153030 | 68 | 124 | 7.8 | 20.0 | 0.00 | 0.00 | 0.00 | 68 | 1010.6 |
| 20260506151533 | 68 | 105 | 10.4 | 16.5 | 0.00 | 0.00 | 0.00 | 67 | 1010.8 |
| 20260506150028 | 69 | 99 | 13.9 | 19.1 | 0.00 | 0.00 | 0.00 | 67 | 1010.7 |
| 20260506144531 | 69 | 105 | 13.9 | 20.0 | 0.00 | 0.00 | 0.00 | 68 | 1010.7 |
| 20260506143032 | 68 | 119 | 14.8 | 23.5 | 0.00 | 0.00 | 0.00 | 68 | 1010.7 |